Location: Kerb�bon
(47.7970°N, 3.3487°W)
Time: 11:44:08
(UTC+00:00)

SPOT 3 Rocket - Pass Details

Date: 12 May 2021
Orbit: 779 x 794 km, 98.7° (Epoch: 18 June)

Event Time Altitude Azimuth Distance (km) Brightness Sun altitude
Exits shadow 21:06:37 - 176° (S) 2,458 5.7 -12.2°
Reaches altitude 10° 21:06:57 10° 177° (S) 2,332 5.6 -12.2°
Maximum altitude 21:12:02 63° 258° (WSW) 875 3.9 -12.8°
Drops below altitude 10° 21:17:10 10° 339° (NNW) 2,344 7.2 -13.4°
Sets 21:19:31 0° 343° (NNW) 3,276 8.0 -13.7°
